Location: Sihaung
(22.8641°N, 94.0549°E)
Time: 17:49:53
(UTC+00:00)

CZ-2C R/B - Pass Details

Date: 03 March 2021
Orbit: 784 x 871 km, 98.2° (Epoch: 12 April)

Event Time Altitude Azimuth Distance (km) Brightness Sun altitude
Rises 13:02:07 0° 4° (N) 3,384 5.8 -17.8°
Reaches altitude 10° 13:04:34 10° 359° (N) 2,435 5.1 -18.4°
Maximum altitude 13:09:44 50° 285° (WNW) 1,034 3.5 -19.6°
Drops below altitude 10° 13:14:48 10° 211° (SSW) 2,373 5.4 -20.8°
Sets 13:17:09 0° 206° (SSW) 3,290 6.1 -21.3°
